| time (UTC) | temp C | wind direction | speed KPH | gust KPH | rain 1hr cm | rain 24hr cm | rain mn cm | humidity % | barometer mb |
| 20260506234730 | 17 | 308 | 11.3 | 17.7 | 0.00 | 0.00 | 0.00 | 86 | 1013.8 |
| 20260506233731 | 18 | 23 | 6.4 | 8.0 | 0.00 | 0.00 | 0.00 | 85 | 1013.8 |
| 20260506232722 | 18 | 268 | 6.4 | 6.4 | 0.00 | 0.00 | 0.00 | 84 | 1013.8 |
| 20260506231743 | 18 | 6.4 | 9.7 | 0.00 | 0.00 | 0.00 | 83 | 1013.6 | |
| 20260506230722 | 19 | 0.0 | 0.0 | 0.00 | 0.00 | 0.00 | 82 | 1013.4 | |
| 20260506225746 | 19 | 135 | 1.6 | 8.0 | 0.00 | 0.00 | 0.00 | 82 | 1013.6 |
| 20260506224803 | 19 | 293 | 6.4 | 8.0 | 0.00 | 0.00 | 0.00 | 81 | 1013.7 |
| 20260506223721 | 18 | 329 | 12.9 | 14.5 | 0.00 | 0.00 | 0.00 | 84 | 1013.4 |
| 20260506222723 | 18 | 301 | 11.3 | 14.5 | 0.00 | 0.00 | 0.00 | 83 | 1013.4 |
| 20260506221722 | 19 | 293 | 3.2 | 9.7 | 0.00 | 0.00 | 0.00 | 82 | 1013.2 |
| 20260506220743 | 20 | 345 | 4.8 | 8.0 | 0.00 | 0.00 | 0.00 | 79 | 1013.3 |
| 20260506215731 | 21 | 338 | 11.3 | 14.5 | 0.00 | 0.00 | 0.00 | 77 | 1013.3 |
| 20260506214727 | 22 | 0.0 | 0.0 | 0.00 | 0.00 | 0.00 | 77 | 1013.3 | |
| 20260506213725 | 22 | 338 | 4.8 | 6.4 | 0.00 | 0.00 | 0.00 | 75 | 1013.3 |
| 20260506212723 | 23 | 12.9 | 12.9 | 0.00 | 0.00 | 0.00 | 74 | 1013.1 | |
| 20260506211723 | 23 | 327 | 11.3 | 12.9 | 0.00 | 0.00 | 0.00 | 74 | 1013.1 |
| 20260506210722 | 24 | 10 | 12.9 | 17.7 | 0.00 | 0.00 | 0.00 | 72 | 1013.0 |
| 20260506205731 | 25 | 338 | 6.4 | 8.0 | 0.00 | 0.00 | 0.00 | 72 | 1013.0 |
| 20260506204732 | 25 | 285 | 9.7 | 9.7 | 0.00 | 0.00 | 0.00 | 74 | 1012.9 |
| 20260506203731 | 23 | 293 | 6.4 | 12.9 | 0.00 | 0.00 | 0.00 | 78 | 1013.0 |
| 20260506202723 | 23 | 270 | 3.2 | 8.0 | 0.00 | 0.00 | 0.00 | 77 | 1013.2 |
| 20260506201745 | 24 | 68 | 8.0 | 11.3 | 0.00 | 0.00 | 0.00 | 78 | 1013.3 |
| 20260506200723 | 23 | 323 | 9.7 | 11.3 | 0.00 | 0.00 | 0.00 | 79 | 1013.3 |
| 20260506195800 | 24 | 30 | 11.3 | 14.5 | 0.00 | 0.00 | 0.00 | 78 | 1013.1 |
| 20260506194730 | 23 | 293 | 3.2 | 11.3 | 0.00 | 0.00 | 0.00 | 80 | 1013.0 |
| 20260506193731 | 26 | 308 | 11.3 | 12.9 | 0.00 | 0.00 | 0.00 | 77 | 1012.7 |
| 20260506192802 | 29 | 0.0 | 0.0 | 0.00 | 0.00 | 0.00 | 71 | 1012.5 | |
| 20260506191722 | 30 | 0.0 | 0.0 | 0.00 | 0.00 | 0.00 | 69 | 1012.6 | |
| 20260506190722 | 31 | 0.0 | 0.0 | 0.00 | 0.00 | 0.00 | 66 | 1012.7 | |
| 20260506185725 | 31 | 0.0 | 0.0 | 0.00 | 0.00 | 0.00 | 66 | 1013.0 | |
| 20260506184723 | 31 | 0.0 | 0.0 | 0.00 | 0.00 | 0.00 | 65 | 1013.0 | |
| 20260506183720 | 32 | 293 | 0.0 | 3.2 | 0.00 | 0.00 | 0.00 | 65 | 1012.9 |
| 20260506182722 | 30 | 23 | 0.0 | 1.6 | 0.00 | 0.00 | 0.00 | 67 | 1012.8 |
| 20260506181742 | 30 | 293 | 1.6 | 4.8 | 0.00 | 0.00 | 0.00 | 69 | 1012.9 |
| 20260506180722 | 29 | 0.0 | 0.0 | 0.00 | 0.00 | 0.00 | 70 | 1013.1 | |
| 20260506175731 | 27 | 0.0 | 0.0 | 0.00 | 0.00 | 0.00 | 72 | 1013.1 | |
| 20260506174750 | 27 | 0.0 | 0.0 | 0.00 | 0.00 | 0.00 | 72 | 1013.1 | |
| 20260506173725 | 26 | 0.0 | 0.0 | 0.00 | 0.00 | 0.00 | 74 | 1013.1 | |
| 20260506172723 | 26 | 6.4 | 6.4 | 0.00 | 0.00 | 0.00 | 73 | 1013.2 | |
| 20260506171743 | 27 | 0.0 | 0.0 | 0.00 | 0.00 | 0.00 | 72 | 1013.3 | |
| 20260506170723 | 26 | 0.0 | 0.0 | 0.00 | 0.00 | 0.00 | 74 | 1013.4 | |
| 20260506165730 | 25 | 0.0 | 0.0 | 0.00 | 0.00 | 0.00 | 79 | 1013.4 | |
| 20260506164732 | 22 | 0.0 | 0.0 | 0.00 | 0.00 | 0.00 | 87 | 1013.8 | |
| 20260506163731 | 21 | 0.0 | 0.0 | 0.00 | 0.00 | 0.00 | 91 | 1013.9 | |
| 20260506162723 | 20 | 329 | 6.4 | 9.7 | 0.00 | 0.00 | 0.00 | 90 | 1014.1 |
| 20260506161726 | 24 | 0 | 12.9 | 14.5 | 0.00 | 0.00 | 0.00 | 83 | 1014.0 |
| 20260506160743 | -17 | 0.0 | 0.0 | 0.00 | 0.00 | 0.00 | |||
| 20260506155721 | 26 | 0.0 | 0.0 | 0.00 | 0.00 | 0.00 | 88 | 1013.7 | |
| 20260506154731 | 26 | 0.0 | 0.0 | 0.00 | 0.00 | 0.00 | 89 | 1013.5 | |
| 20260506153751 | 26 | 0.0 | 0.0 | 0.00 | 0.00 | 0.00 | 91 | 1013.5 | |
| 20260506152723 | 25 | 0.0 | 0.0 | 0.00 | 0.00 | 0.00 | 91 | 1013.2 | |
| 20260506151722 | 25 | 0.0 | 0.0 | 0.00 | 0.00 | 0.00 | 92 | 1012.7 | |
| 20260506150723 | 25 | 0.0 | 0.0 | 0.00 | 0.00 | 0.00 | 92 | 1012.5 | |
| 20260506145725 | 25 | 0.0 | 0.0 | 0.00 | 0.00 | 0.00 | 93 | 1012.3 | |
| 20260506144724 | 25 | 0.0 | 0.0 | 0.00 | 0.00 | 0.00 | 94 | 1012.4 | |
| 20260506143721 | 25 | 0.0 | 0.0 | 0.00 | 0.00 | 0.00 | 95 | 1012.2 | |
| 20260506142719 | 24 | 0.0 | 0.0 | 0.00 | 0.00 | 0.00 | 96 | 1011.8 | |
| 20260506141723 | 24 | 0.0 | 0.0 | 0.00 | 0.00 | 0.00 | 97 | 1012.3 | |
| 20260506140722 | 23 | 0.0 | 0.0 | 0.00 | 0.00 | 0.00 | 97 | 1012.3 | |
| 20260506135730 | 23 | 0.0 | 0.0 | 0.00 | 0.00 | 0.00 | 98 | 1012.1 | |
| 20260506134731 | 23 | 0.0 | 0.0 | 0.00 | 0.00 | 0.00 | 98 | 1011.3 | |
| 20260506133806 | 23 | 0.0 | 0.0 | 0.00 | 0.00 | 0.00 | 99 | 1011.3 | |
| 20260506132724 | -17 | 0.0 | 0.0 | 0.00 | 0.00 | 0.00 | |||
| 20260506131722 | 23 | 113 | 4.8 | 6.4 | 0.00 | 0.00 | 0.00 | 99 | 1011.2 |
| 20260506130740 | 23 | 0.0 | 0.0 | 0.00 | 0.00 | 0.00 | 99 | 1011.0 | |
| 20260506125731 | 23 | 113 | 4.8 | 6.4 | 0.00 | 0.00 | 0.00 | 99 | 1010.9 |
| 20260506124733 | 23 | 0.0 | 0.0 | 0.00 | 0.00 | 0.00 | 99 | 1010.9 | |
| 20260506123731 | 23 | 0.0 | 0.0 | 0.00 | 0.00 | 0.00 | 99 | 1010.9 | |
| 20260506122723 | 23 | 0.0 | 0.0 | 0.00 | 0.00 | 0.00 | 99 | 1010.9 | |
| 20260506121723 | 23 | 0.0 | 0.0 | 0.00 | 0.00 | 0.00 | 99 | 1011.0 | |
| 20260506120725 | 23 | 0.0 | 0.0 | 0.00 | 0.00 | 0.00 | 99 | 1010.9 | |
| 20260506115722 | 23 | 0.0 | 0.0 | 0.00 | 0.00 | 0.00 | 99 | 1010.9 | |
| 20260506114725 | 23 | 0.0 | 0.0 | 0.00 | 0.00 | 0.00 | 99 | 1010.7 | |
| 20260506113736 | 23 | 0.0 | 0.0 | 0.00 | 0.00 | 0.00 | 99 | 1010.8 | |
| 20260506112723 | 23 | 0.0 | 0.0 | 0.00 | 0.00 | 0.00 | 99 | 1010.7 | |
| 20260506111743 | 23 | 0.0 | 0.0 | 0.00 | 0.00 | 0.00 | 99 | 1010.6 | |
| 20260506110743 | 23 | 0.0 | 0.0 | 0.00 | 0.00 | 0.00 | 99 | 1010.6 | |
| 20260506105727 | 23 | 0.0 | 0.0 | 0.00 | 0.00 | 0.00 | 99 | 1010.5 | |
| 20260506104725 | 23 | 0.0 | 0.0 | 0.00 | 0.00 | 0.00 | 99 | 1010.4 | |
| 20260506103722 | 23 | 0.0 | 0.0 | 0.00 | 0.00 | 0.00 | 99 | 1010.4 | |
| 20260506102723 | 23 | 0.0 | 0.0 | 0.00 | 0.00 | 0.00 | 99 | 1010.3 | |
| 20260506101723 | 23 | 0.0 | 0.0 | 0.00 | 0.00 | 0.00 | 99 | 1010.4 | |
| 20260506100723 | 23 | 0.0 | 0.0 | 0.00 | 0.00 | 0.00 | 99 | 1010.3 | |
| 20260506095731 | 23 | 0.0 | 0.0 | 0.00 | 0.00 | 0.00 | 99 | 1010.2 | |
| 20260506094731 | 23 | 0.0 | 0.0 | 0.00 | 0.00 | 0.00 | 99 | 1010.2 | |
| 20260506093727 | 23 | 0.0 | 0.0 | 0.00 | 0.00 | 0.00 | 99 | 1010.1 | |
| 20260506092725 | 23 | 0.0 | 0.0 | 0.00 | 0.00 | 0.00 | 99 | 1009.8 | |
| 20260506091723 | 23 | 135 | 6.4 | 8.0 | 0.00 | 0.00 | 0.00 | 99 | 1009.8 |
| 20260506090720 | 23 | 199 | 4.8 | 8.0 | 0.00 | 0.00 | 0.00 | 99 | 1009.8 |
| 20260506085731 | 23 | 146 | 1.6 | 4.8 | 0.00 | 0.00 | 0.00 | 99 | 1009.7 |
| 20260506084731 | 23 | 0.0 | 0.0 | 0.00 | 0.00 | 0.00 | 99 | 1009.7 | |
| 20260506083732 | 23 | 0.0 | 0.0 | 0.00 | 0.00 | 0.00 | 99 | 1009.7 | |
| 20260506082723 | 23 | 175 | 8.0 | 9.7 | 0.00 | 0.00 | 0.00 | 99 | 1009.7 |
| 20260506081723 | 23 | 3.2 | 6.4 | 0.00 | 0.00 | 0.00 | 99 | 1009.8 | |
| 20260506080725 | 23 | 0.0 | 0.0 | 0.00 | 0.00 | 0.00 | 99 | 1010.0 | |
| 20260506072743 | 23 | 0.0 | 0.0 | 0.00 | 0.00 | 0.00 | 98 | 1010.2 | |
| 20260506071743 | 23 | 0.0 | 0.0 | 0.00 | 0.00 | 0.00 | 98 | 1010.3 | |
| 20260506070723 | 23 | 1.6 | 3.2 | 0.00 | 0.00 | 0.00 | 98 | 1010.4 | |
| 20260506061723 | 23 | 135 | 3.2 | 8.0 | 0.00 | 0.00 | 0.00 | 96 | 1010.3 |
| 20260506060723 | 23 | 0.0 | 0.0 | 0.00 | 0.00 | 0.00 | 96 | 1010.4 | |
| 20260506050728 | 24 | 158 | 1.6 | 6.4 | 0.00 | 0.00 | 0.00 | 96 | 1010.5 |
| 20260506044731 | 24 | 180 | 4.8 | 9.7 | 0.00 | 0.00 | 0.00 | 96 | 1010.5 |
| 20260506043732 | 24 | 135 | 3.2 | 4.8 | 0.00 | 0.00 | 0.00 | 96 | 1010.5 |
| 20260506042723 | 24 | 158 | 3.2 | 6.4 | 0.00 | 0.00 | 0.00 | 96 | 1010.4 |
| 20260506041723 | 24 | 0.0 | 0.0 | 0.00 | 0.00 | 0.00 | 97 | 1010.2 | |
| 20260506040725 | 24 | 0.0 | 0.0 | 0.00 | 0.00 | 0.00 | 97 | 1010.2 | |
| 20260506035723 | 24 | 0.0 | 0.0 | 0.00 | 0.00 | 0.00 | 97 | 1010.1 | |
| 20260506034721 | 24 | 180 | 1.6 | 6.4 | 0.00 | 0.00 | 0.00 | 97 | 1010.0 |
| 20260506033731 | 24 | 0.0 | 0.0 | 0.00 | 0.00 | 0.00 | 97 | 1009.9 | |
| 20260506032723 | 24 | 0.0 | 0.0 | 0.00 | 0.00 | 0.00 | 97 | 1009.7 | |
| 20260506031723 | 24 | 0.0 | 0.0 | 0.00 | 0.00 | 0.00 | 96 | 1009.5 | |
| 20260506030723 | 24 | 0.0 | 0.0 | 0.00 | 0.00 | 0.00 | 96 | 1009.4 | |
| 20260506025728 | 24 | 0.0 | 0.0 | 0.00 | 0.00 | 0.00 | 95 | 1009.2 | |
| 20260506024725 | 24 | 0.0 | 0.0 | 0.00 | 0.00 | 0.00 | 94 | 1009.3 | |
| 20260506023744 | 25 | 180 | 6.4 | 9.7 | 0.00 | 0.00 | 0.00 | 94 | 1009.1 |
| 20260506022723 | 25 | 158 | 4.8 | 9.7 | 0.00 | 0.00 | 0.00 | 93 | 1009.0 |
| 20260506021719 | 25 | 113 | 4.8 | 9.7 | 0.00 | 0.00 | 0.00 | 92 | 1008.6 |
| 20260506020723 | 25 | 135 | 9.7 | 11.3 | 0.00 | 0.00 | 0.00 | 92 | 1008.5 |
| 20260506015813 | 25 | 0.0 | 0.0 | 0.00 | 0.00 | 0.00 | 91 | 1008.4 | |
| 20260506014731 | 25 | 158 | 3.2 | 6.4 | 0.00 | 0.00 | 0.00 | 91 | 1008.1 |
| 20260506013732 | 25 | 0.0 | 0.0 | 0.00 | 0.00 | 0.00 | 90 | 1008.2 | |
| 20260506012743 | 25 | 0.0 | 0.0 | 0.00 | 0.00 | 0.00 | 89 | 1008.2 | |
| 20260506011724 | 26 | 0.0 | 0.0 | 0.00 | 0.00 | 0.00 | 87 | 1008.2 | |
| 20260506010723 | 26 | 0.0 | 0.0 | 0.00 | 0.00 | 0.00 | 85 | 1008.2 | |
| 20260506005740 | 27 | 0.0 | 0.0 | 0.00 | 0.00 | 0.00 | 83 | 1008.2 | |
| 20260506004731 | 27 | 0.0 | 0.0 | 0.00 | 0.00 | 0.00 | 82 | 1008.0 | |
| 20260506003733 | 27 | 0.0 | 0.0 | 0.00 | 0.00 | 0.00 | 81 | 1007.9 | |
| 20260506002723 | 28 | 0.0 | 0.0 | 0.00 | 0.00 | 0.00 | 80 | 1007.9 | |
| 20260506001743 | 28 | 0.0 | 0.0 | 0.00 | 0.00 | 0.00 | 79 | 1008.0 | |
| 20260506000726 | 28 | 158 | 0.0 | 1.6 | 0.00 | 0.00 | 0.00 | 78 | 1007.8 |
| 20260505235744 | 28 | 0.0 | 0.0 | 0.00 | 0.00 | 0.00 | 77 | 1007.8 |